Tracking 19969 objects as of 13-Nov-2019
Live streaming from Space Station
objects crossing your sky now
Track the group of recently launched Starlink satellites

DELTA 1 DEB

Track DELTA 1 DEB now!
10-day predictions


NORAD ID: 42564
Int'l Code: 1972-058JX
Perigee: 831.2 km
Apogee: 980.6 km
Inclination: 99.1 °
Period: 103.0 minutes
Semi major axis: 7276 km
RCS: Unknown
Launch date: July 23, 1972
Source: United States (US)
Launch site: AIR FORCE WESTERN TEST RANGE (AFWTR)

Note: This is SATELLITE DEBRIS
aabbcc
Your satellite tracking list
Your tracking list is empty




NASA's NSSDC Master Catalog

Two Line Element Set (TLE):
1 42564U 72058JX  19310.00597431  .00001543  00000-0  10572-2 0  9996
2 42564  99.0509 235.8550 0102702  59.7318   0.8827 13.98567545387925
Source of the keplerian elements: AFSPC